Regional Weather Roundup
Issued by NWS

Home | Current Version | Previous Version | Text Only | Print | Product List | Glossary On
Versions: 1 2 3 4 5 6 7 8 9 10 11 12 13 14 15 16 17 18 19 20 21 22 23 24 25 26 27 28 29 30 31 32 33 34 35 36 37 38 39 40 41 42 43 44 45 46 47 48 49 50
000
ASUS43 KDTX 210810
RWRMI
MICHIGAN HOURLY REGIONAL WEATHER ROUNDUP
NATIONAL WEATHER SERVICE DETROIT/PONTIAC MI
300 AM EST TUE FEB 21 2017

NOTE: "FAIR" INDICATES FEW OR NO CLOUDS BELOW 12,000 FEET WITH NO
SIGNIFICANT WEATHER AND/OR OBSTRUCTION TO VISIBILITY.

MIZ047>049-052>055-059>063-066>070-074>076-081>083-210900-
SOUTHEAST LOWER MICHIGAN

CITY           SKY/WX    TMP DP  RH WIND       PRES   REMARKS
ADRIAN         PTCLDY    35  33  92 SE5       30.03F WCI  31
ALMA           CLOUDY    40  33  75 SE7       29.96F
ANN ARBOR      CLOUDY    37  30  75 E6        30.03F WCI  32
BAD AXE        PTCLDY    37  27  66 SE12      30.00F WCI  30
CARO           PTCLDY    40  29  66 SE10      30.00F WCI  33
DETROIT CITY   CLOUDY    37  31  78 SE3       30.06F
DETROIT        CLOUDY    39  31  72 CALM      30.05F
FLINT          CLOUDY    40  31  70 S7        30.02F
GROSSE ILE     CLOUDY    38  32  78 CALM      30.04S
HILLSDALE      PTCLDY    39  32  75 SE8       29.99F WCI  34
HOWELL         CLOUDY    39  31  72 S9        30.01S WCI  33

CITY           SKY/WX    TMP DP  RH WIND       PRES   REMARKS
JACKSON        CLOUDY    39  32  76 SE9       29.99F WCI  33
LAMBERTVILLE   PTCLDY    37  33  85 CALM      30.03F
LANSING        CLOUDY    42  32  67 S12       29.98F
LAPEER         FAIR      38  30  71 SE8       30.02F WCI  32
MASON          MOCLDY    40  34  77 S6        29.99F
MONROE         PTCLDY    36  33  90 E6        30.04F WCI  31
MT. CLEMENS    CLOUDY    35  31  87 SE6       30.03F WCI  30
PONTIAC        CLOUDY    37  29  72 SE7       30.02F WCI  32
PORT HOPE        N/A     36  27  69 S15G26    29.99F WCI  27
PORT HURON     PTCLDY    37  27  65 SE7       30.05F WCI  32
TRI CITIES     CLOUDY    40  31  70 S6        29.98F
MIDLAND        MOCLDY    41  28  60 S7        29.98S
TROY           CLOUDY    38  28  67 SE3       30.07F
SAGINAW HB     MOCLDY    37  30  75 SE9       29.99F WCI  31
$$
MIZ043>046-050>051-056>058-064>065-071>073-077>080-210900-
SOUTHWEST LOWER MICHIGAN

CITY           SKY/WX    TMP DP  RH WIND       PRES   REMARKS
BATTLE CREEK   MOCLDY    47  37  68 S10       29.97F
BENTON HARBOR  CLOUDY    53  41  63 SE9       29.92F
BIG RAPIDS     CLOUDY    45  34  65 S6        29.92F
COLDWATER      CLOUDY    45  36  70 SE7       29.98F
FREMONT        CLOUDY    50  36  58 SE8       29.90F
HOLLAND        PTCLDY    51  40  65 S12       29.92F
GRAND RAPIDS   CLOUDY    47  36  65 S7        29.94F
IONIA          FAIR      41  33  73 SE9       29.95F
KALAMAZOO      CLOUDY    47  35  63 S8        29.96F
LUDINGTON      CLOUDY    54  41  61 S9        29.85F
MARSHALL       CLOUDY    44  35  70 SE3       29.97F
MOUNT PLEASANT CLOUDY    39  32  75 SE3       29.96F
MUSKEGON       CLOUDY    54  40  59 SE13      29.90F
SOUTH HAVEN    CLOUDY    52  41  66 S10       29.92F
$$
MIZ016>042-210900-
NORTHERN LOWER MICHIGAN

CITY           SKY/WX    TMP DP  RH WIND       PRES   REMARKS
ALPENA         CLOUDY    39  32  76 S8        29.97F WCI  33
BEAVER ISLAND  CLOUDY    42  37  80 S15G24    29.80F
BELLAIRE       CLOUDY    46  34  62 S8        29.87F
CADILLAC       CLOUDY    46  35  65 S10       29.89F
CHARLEVOIX     CLOUDY    47  34  61 S14G24    29.85F
FRANKFORT      CLOUDY    50  42  74 SE8       29.83F
GAYLORD        CLOUDY    43  31  62 S15       29.88F
GRAYLING       CLOUDY    41  32  70 SE9       29.93F
HARBOR SPRINGS CLOUDY    47  33  59 S6        29.85F
HOUGHTON LAKE  CLOUDY    40  30  67 SE12      29.94F WCI  33
MANISTEE       CLOUDY    53  38  56 VRB6      29.86R
OSCODA         PTCLDY    38  31  76 S6        29.99F WCI  33
PELLSTON       CLOUDY    40  30  67 SE5       29.85F
ROGERS CITY    CLOUDY    40  31  72 S14G22    29.93F WCI  32
TRAVERSE CITY  CLOUDY    50  35  56 VRB6      29.85F
$$
MIZ007>008-015-210900-
EASTERN UPPER MICHIGAN

CITY           SKY/WX    TMP DP  RH WIND       PRES   REMARKS
KINROSS        MIX PCPN  35  33  92 SE22G30   29.86F WCI  23
MACKINAC ISLAN FLURRIES  35  35 100 E7G17     29.86F WCI  29
NEWBERRY       CLOUDY    36  35  97 SE15      29.78F WCI  27
S. S. MARIE    LGT RAIN  34  31  88 E12       29.88F WCI  25
MUNISING         N/A     40  38  93 S9        29.71F WCI  34
$$
MIZ004>006-011>014-085-210900-
CENTRAL UPPER MICHIGAN

CITY           SKY/WX    TMP DP  RH WIND       PRES   REMARKS
MANISTIQUE     LGT RAIN  36  36  97 SE7       29.78F WCI  31
ESCANABA       CLOUDY    40  39  97 S10       29.74F WCI  33
MENOMINEE      CLOUDY    48  45  89 SW14      29.75F
SAWYER-GWINN   FOG       40  39  98 S14       29.67F VSB 3/4 WCI  32
$$
MIZ001>003-009>011-084-210900-
WESTERN UPPER MICHIGAN

CITY           SKY/WX    TMP DP  RH WIND       PRES   REMARKS
IRON MOUNTAIN  FOG       44  42  93 S9        29.67F VSB 1/4
HOUGHTON       LGT RAIN  44  42  93 S12       29.57F FOG
COPPER HARBOR    N/A     41  39  93 SW9       29.56F
IRONWOOD       CLOUDY    45  43  93 W18G24    29.68R
$$

ABBREVIATIONS USED IN REMARKS
   TC - TEMPERATURE IN CELSIUS
  WCI - WIND CHILL INDEX
   HX - HEAT INDEX
  VSB - VISIBILITY




USA.gov is the U.S. government's official web portal to all federal, state and local government web resources and services.